Location: Sunny Point
(33.0946°N, 85.0574°W)
Time: 05:17:42
(UTC+00:00)

BUGSAT 1 - Visible Passes

Search period start: 16 July 2024 00:00
Search period end: 26 July 2024 00:00
Orbit: 528 x 578 km, 98.1° (Epoch: 15 July)

Date Brightness Start Highest point End Pass type
(mag) Time Alt. Az. Time Alt. Az. Time Alt. Az.
16 Jul ? 01:53:52 10° S 01:57:39 61° W 02:01:27 10° NNW visible
17 Jul ? 01:50:32 10° S 01:54:20 69° W 01:58:09 10° NNW visible
18 Jul ? 01:47:12 10° S 01:51:00 78° WSW 01:54:51 10° NNW visible
19 Jul ? 01:43:51 10° SSE 01:47:40 87° WSW 01:51:31 10° NNW visible
20 Jul ? 01:40:30 10° SSE 01:44:18 83° ENE 01:48:09 10° N visible
21 Jul ? 01:37:08 10° SSE 01:40:56 74° ENE 01:44:46 10° N visible
22 Jul ? 01:33:46 10° SSE 01:37:32 65° ENE 01:41:22 10° N visible
23 Jul ? 01:30:24 10° SSE 01:34:08 57° ENE 01:37:55 10° N visible
24 Jul ? 01:27:01 10° SSE 01:30:43 50° ENE 01:34:28 10° N visible
25 Jul ? 01:23:38 10° SSE 01:27:17 45° ENE 01:30:59 10° N visible
